Location: Unspecified
(35.6961°N, 0.0000°E)
Time: 13:19:14
(UTC+00:00)

Vanguard 3 - Pass Details

Date: 29 May 2019
Orbit: 508 x 3263 km, 33.3° (Epoch: 19 June)

Event Time Altitude Azimuth Distance (km) Brightness Sun altitude
Rises 03:30:45 0° 267° (W) 5,650 - -13.7°
Reaches altitude 10° 03:36:41 10° 246° (WSW) 5,175 - -12.7°
Exits shadow 03:40:23 14° 232° (SW) 5,122 10.5 -12.2°
Maximum altitude 03:44:14 15° 217° (SW) 5,253 10.6 -11.5°
Drops below altitude 10° 03:52:59 10° 189° (S) 6,072 11.2 -10.1°
Sets 04:01:28 0° 170° (S) 7,218 11.7 -8.7°
